Regional Weather Roundup
Issued by NWS Northern Indiana

Home | Current Version | Previous Version | Graphics & Text | Print | Product List | Glossary On
Versions: 1 2 3 4 5 6 7 8 9 10 11 12 13 14 15 16 17 18 19 20 21 22 23 24 25 26 27 28 29 30 31 32 33 34 35 36 37 38 39 40 41 42 43 44 45 46 47 48 49 50
000
ASUS43 KIWX 301310
RWRIWX

KIWX WEATHER ROUNDUP
NATIONAL WEATHER SERVICE NORTHERN INDIANA
900 AM EDT MON MAY 30 2016

NOTE: "FAIR" INDICATES FEW OR NO CLOUDS BELOW 12,000 FEET WITH NO
SIGNIFICANT WEATHER AND/OR OBSTRUCTIONS TO VISIBILITY.

* THESE STATIONS ARE NOT UNDER NWS QUALITY CONTROL. THEY ALSO MAY NOT
  REPORT WEATHER SUCH AS PRECIPITATION OR FOG.

INZ001>027-301400-
NORTHERN INDIANA

CITY           SKY/WX    TMP DP  RH WIND       PRES   REMARKS
GARY*          MOSUNNY   72  66  83 SW6       30.04S
VALPARAISO     MOSUNNY   70  59  68 W5        30.05R
MICHIGAN CITY* SUNNY     70  61  73 CALM      30.05R
LAPORTE*       SUNNY     72  61  67 CALM      30.05R
KNOX*          MOSUNNY   68  50  52 SW3       30.04S
SOUTH BEND     SUNNY     71  59  65 NW7       30.04S
GOSHEN         SUNNY     70  58  65 W7        30.04S
MONTICELLO*    CLOUDY    71  56  59 CALM      30.05S
LOGANSPORT*    CLOUDY    72  59  64 W5        30.06S
ROCHESTER*     CLOUDY    72  61  68 CALM      30.06R
WARSAW*        SUNNY     70  59  68 W5        30.05S
ANGOLA*          N/A     72  61  68 VRB3      30.04S
FORT WAYNE     CLOUDY    73  57  57 W7        30.05S
HUNTINGTON*    CLOUDY    70  59  68 W3        30.05S
PERU/GRISSOM   CLOUDY    71  60  68 W3        30.05S
MARION*        CLOUDY    71  58  64 NW3       30.07R

$$
INZ028>050-301400-
CENTRAL INDIANA

CITY           SKY/WX    TMP DP  RH WIND       PRES   REMARKS
LAFAYETTE      CLOUDY    69  60  73 CALM      30.05S
KOKOMO*        CLOUDY    73  57  56 W5        30.06R
MUNCIE*        CLOUDY    73  57  57 W3        30.07R
INDIANAPOLIS   CLOUDY    72  60  66 CALM      30.06R

$$
MIZ043>046-050>051-056>058-064>065-071>073-077>080-301400-
SOUTHWEST LOWER MICHIGAN

CITY           SKY/WX    TMP DP  RH WIND       PRES   REMARKS
BATTLE CREEK   SUNNY     68  59  73 W6        30.04R
BENTON HARBOR  SUNNY     68  59  73 W5        30.03S
COLDWATER*     SUNNY     71  59  66 W6        30.04R
HILLSDALE*     SUNNY     70  55  59 W6        30.04S
HOLLAND        SUNNY     68  59  73 SW3       30.03R
GRAND RAPIDS   MOSUNNY   70  58  65 SW3       30.02R
KALAMAZOO      SUNNY     71  58  63 W3        30.03S
STURGIS*       SUNNY     70  59  67 CALM      30.03S
THREE RIVERS*  FAIR      72  60  67 W5        30.04S

$$
OHZ001>008-015>018-024>025-301400-
NORTHWEST OHIO

CITY           SKY/WX    TMP DP  RH WIND       PRES   REMARKS
WAUSEON*         N/A     72  72 100 W6        30.03S
DEFIANCE       SUNNY     72  58  61 VRB3      30.04R
FINDLAY        MOSUNNY   74  57  55 W7        30.03S
TOLEDO EXPRESS SUNNY     71  57  61 W8        30.02S
TOLEDO METCALF SUNNY     73  58  59 W7        30.03S
LIMA           SUNNY     72  59  63 W7        30.05S

$$
AND FOR LAKE MICHIGAN COASTAL AND OPEN LAKE BUOY OBSERVATIONS

STATION/POSITION TEMP    WIND        PRES    VSBY  WAVE
                 AIR SEA DIR/SP/G                  HT/PER
                 (F)     (DEG/KT/KT) (MB)    (MI)  (FT/S)
CALUMET HARBOR    70     230/  3/  5 1016.1S
MICHIGAN CITY     67     180/  5/  5   N/A
BURNS HARBOR      67     200/  4/  6 1017.3S
SAINT JOSEPH      65     200/  2/  3 1017.3S
SOUTH LAKE BUOY   56 51  220/  4/  4 1016.3R         0
4 MI NW BRIDGMAN  65 62   CALM  /  2   N/A           1
MICHIGAN CITY     64 59  220/  2/  2   N/A           0

$$
&&




USA.gov is the U.S. government's official web portal to all federal, state and local government web resources and services.